Newburgh, NY

5:23 AM EDT on September 16, 2019 (GMT -0400)
Stewart International

Weather History for KSWF - August, 2019

Change the Weather History Date:

Sunday, August 18, 2019

  Actual Average Record
Temperature  
Mean Temperature 80 °F -  
Max Temperature 91 °F 78 °F 93 °F (2002)
Min Temperature 68 °F 59 °F 42 °F (1981)
Cooling Degree Days 14    
Growing Degree Days 30 (Base 50)    
Moisture  
Dew Point 71 °F    
Average Humidity 88    
Maximum Humidity 100    
Minimum Humidity 52    
Precipitation  
Precipitation 0.00 in - - ()
Sea Level Pressure  
Sea Level Pressure 30.01 in    
Wind  
Wind Speed 4 mph (West)    
Max Wind Speed 29 mph    
Max Gust Speed 41 mph    
Visibility 6 miles    
Events Fog , Rain    
Averages and records for this station are not official NWS values.
T = Trace of Precipitation, MM = Missing Value Source: NWS Daily Summary

Daily Weather History Graph

Daily Weather History Graph

Search for Another Location

Airport or City:

Astronomy

Aug. 18, 2019 Rise Set
Actual Time 6:08 AM EDT 7:51 PM EDT
Civil Twilight 5:38 AM EDT 8:21 PM EDT
Nautical Twilight 5:02 AM EDT 8:56 PM EDT
Astronomical Twilight 4:24 AM EDT 9:35 PM EDT
Moon 9:43 PM EDT (8/18) 8:52 AM EDT (8/18)
Length of Visible Light 14h 42m
Length of Day
13h 43m
Waning Gibbous, 91% of the Moon is Illuminated
Aug 18
Waning Gibbous
Aug 23
Last Quarter
Aug 30
New
Sep 5
First Quarter
Sep 14
Full

Hourly Weather History & Observations

Time (EDT) Temp. Heat Index Dew Point Humidity Pressure Visibility Wind Dir Wind Speed Gust Speed Precip Events Conditions
12:45 AM 69.8 °F - 69.8 °F 100% 30.02 in 4.0 mi Variable 4.6 mph - N/A   Scattered Clouds
1:45 AM 68.0 °F - 68.0 °F 100% 30.01 in 4.0 mi Variable 4.6 mph - N/A   Scattered Clouds
2:45 AM 68.0 °F - 68.0 °F 100% 30.01 in 4.0 mi Variable 4.6 mph - N/A   Scattered Clouds
3:45 AM 68.0 °F - 68.0 °F 100% 30.01 in 3.0 mi Variable 4.6 mph - N/A   Overcast
4:45 AM 69.8 °F - 69.8 °F 100% 30.01 in 3.0 mi Variable 4.6 mph - N/A   Overcast
5:45 AM 69.8 °F - 69.8 °F 100% 30.02 in 2.0 mi Calm Calm - N/A   Overcast
6:45 AM 69.8 °F - 69.8 °F 100% 30.03 in 1.8 mi Calm Calm - N/A   Overcast
7:45 AM 69.8 °F - 69.8 °F 100% 30.05 in 0.2 mi Calm Calm - N/A Fog Fog
8:10 AM 69.8 °F - 69.8 °F 100% 30.04 in 2.0 mi Calm Calm - N/A   Overcast
8:45 AM 69.8 °F - 69.8 °F 100% 30.05 in 1.8 mi Calm Calm - N/A   Overcast
9:45 AM 73.4 °F - 73.4 °F 100% 30.05 in 4.0 mi Variable 5.8 mph - N/A   Overcast
10:45 AM 75.2 °F - 75.2 °F 100% 30.05 in 7.0 mi Calm Calm - N/A   Mostly Cloudy
11:27 AM 78.8 °F - 75.2 °F 89% 30.05 in 7.0 mi Calm Calm - N/A   Mostly Cloudy
11:45 AM 80.6 °F 87.1 °F 77.0 °F 89% 30.03 in 7.0 mi Calm Calm - N/A   Mostly Cloudy
12:45 PM 82.4 °F 89.5 °F 75.2 °F 79% 30.02 in 710.0 mi Calm Calm - N/A   Mostly Cloudy
1:45 PM 86.0 °F 95.1 °F 75.2 °F 70% 30.01 in 10.0 mi Calm Calm - N/A   Scattered Clouds
2:45 PM 89.6 °F 99.8 °F 75.2 °F 62% 29.99 in 10.0 mi West 9.2 mph 23.0 mph N/A   Scattered Clouds
3:45 PM 91.4 °F 98.4 °F 71.6 °F 52% 29.98 in 10.0 mi West 11.5 mph 23.0 mph N/A   Scattered Clouds
4:45 PM 91.4 °F 100.1 °F 73.4 °F 55% 29.97 in 10.0 mi West 11.5 mph 15.0 mph N/A   Scattered Clouds
5:45 PM 89.6 °F 98.2 °F 73.4 °F 59% 29.96 in 10.0 mi SSW 8.1 mph - N/A   Scattered Clouds
6:45 PM 86.0 °F 93.4 °F 73.4 °F 66% 29.97 in 10.0 mi SW 5.8 mph - N/A   Mostly Cloudy
7:05 PM 82.4 °F 85.4 °F 68.0 °F 62% 29.98 in 10.0 mi WNW 28.8 mph 41.4 mph N/A   Mostly Cloudy
7:45 PM 69.8 °F - 69.8 °F 100% 30.03 in 2.0 mi West 10.4 mph 17.3 mph N/A Rain Rain
8:45 PM 68.0 °F - 68.0 °F 100% 30.04 in 2.0 mi WSW 11.5 mph 18.4 mph N/A Rain Rain
9:45 PM 68.0 °F - 68.0 °F 100% 30.01 in 10.0 mi WNW 5.8 mph - N/A   Overcast
10:45 PM 68.0 °F - 68.0 °F 100% 30.00 in 10.0 mi WNW 5.8 mph - N/A   Mostly Cloudy
11:45 PM - - - N/A% 29.98 in 10.0 mi Calm Calm - N/A   Clear